When you browse on this site, cookies collect data to enhance your experience and personalize the content and advertising you see.
Visit our Privacy Policy to learn more. By continuing to use the site, you agree to this use of cookies and data.
  • In Denmark
  • List of Countries
  • For 7 days
  • Water Temperature
  • Weather Map
  • Weather Widgets
  • user-avatar
    Login

    Hourly Weather Szklarnia

    Today, 15 October, Tuesday

    Time Temperature Precipitation Wind Pressure Humidity
    00:00 +12°C° 0 mm 3 mps 719 mmHg 80%
    01:00 +12°C° 0 mm 3 mps 718 mmHg 84%
    02:00 +12°C° 0 mm 3 mps 718 mmHg 85%
    03:00 +12°C° 0 mm 3 mps 718 mmHg 85%
    04:00 +12°C° 0 mm 3 mps 717 mmHg 85%
    05:00 +12°C° 0 mm 3 mps 717 mmHg 85%
    06:00 +12°C° 0 mm 3 mps 717 mmHg 84%
    07:00 +12°C° 0 mm 3 mps 717 mmHg 84%
    08:00 +14°C° 0 mm 4 mps 717 mmHg 78%
    09:00 +15°C° 0 mm 5 mps 717 mmHg 73%
    10:00 +16°C° 0 mm 5 mps 717 mmHg 67%
    11:00 +17°C° 0 mm 6 mps 716 mmHg 64%
    12:00 +19°C° 0 mm 6 mps 716 mmHg 61%
    13:00 +20°C° 0 mm 7 mps 716 mmHg 58%
    14:00 +19°C° 0 mm 6 mps 715 mmHg 61%
    15:00 +19°C° 0 mm 5 mps 715 mmHg 64%
    16:00 +17°C° 0 mm 5 mps 714 mmHg 67%
    17:00 +17°C° 0 mm 4 mps 714 mmHg 70%
    18:00 +15°C° 0 mm 4 mps 714 mmHg 73%
    19:00 +14°C° 0 mm 4 mps 714 mmHg 76%
    20:00 +14°C° 0 mm 4 mps 714 mmHg 78%
    21:00 +14°C° 0 mm 4 mps 713 mmHg 80%
    22:00 +14°C° 0 mm 5 mps 713 mmHg 82%
    23:00 +13°C° 0 mm 5 mps 714 mmHg 84%

    Tomorrow, 16 October, Wednesday

    Time Temperature Precipitation Wind Pressure Humidity
    00:00 +13°C° 0 mm 4 mps 714 mmHg 87%
    01:00 +12°C° 0 mm 4 mps 714 mmHg 90%
    02:00 +12°C° 0 mm 4 mps 714 mmHg 91%
    03:00 +12°C° 0 mm 4 mps 715 mmHg 91%
    04:00 +12°C° 0 mm 4 mps 715 mmHg 92%
    05:00 +12°C° 0 mm 4 mps 716 mmHg 88%
    06:00 +12°C° 0 mm 5 mps 716 mmHg 85%
    07:00 +12°C° 0 mm 5 mps 717 mmHg 82%
    08:00 +10°C° 0.1 mm 5 mps 717 mmHg 83%
    09:00 +10°C° 0.1 mm 5 mps 718 mmHg 85%
    10:00 +10°C° 0.1 mm 5 mps 719 mmHg 87%
    11:00 +12°C° 0 mm 5 mps 719 mmHg 80%
    12:00 +12°C° 0 mm 5 mps 719 mmHg 73%
    13:00 +13°C° 0 mm 5 mps 720 mmHg 67%
    14:00 +13°C° 0 mm 5 mps 719 mmHg 67%
    15:00 +13°C° 0 mm 4 mps 719 mmHg 67%
    16:00 +13°C° 0 mm 3 mps 719 mmHg 67%
    17:00 +12°C° 0 mm 3 mps 719 mmHg 70%
    18:00 +10°C° 0 mm 3 mps 720 mmHg 74%
    19:00 +9°C° 0 mm 2 mps 720 mmHg 77%
    20:00 +9°C° 0 mm 2 mps 720 mmHg 79%
    21:00 +9°C° 0 mm 2 mps 720 mmHg 80%
    22:00 +8°C° 0 mm 3 mps 721 mmHg 81%
    23:00 +8°C° 0 mm 2 mps 721 mmHg 81%

    Day after tomorrow, 17 October, Thursday

    Time Temperature Precipitation Wind Pressure Humidity
    00:00 +8°C° 0 mm 2 mps 721 mmHg 81%
    01:00 +8°C° 0 mm 2 mps 721 mmHg 81%
    02:00 +8°C° 0 mm 2 mps 721 mmHg 80%
    03:00 +8°C° 0 mm 2 mps 721 mmHg 80%
    04:00 +8°C° 0 mm 2 mps 721 mmHg 79%
    05:00 +8°C° 0 mm 2 mps 721 mmHg 80%
    06:00 +8°C° 0 mm 2 mps 721 mmHg 80%
    07:00 +8°C° 0 mm 2 mps 721 mmHg 80%
    08:00 +10°C° 0 mm 2 mps 721 mmHg 74%
    09:00 +13°C° 0 mm 2 mps 721 mmHg 68%
    10:00 +15°C° 0 mm 1 mps 721 mmHg 61%
    11:00 +15°C° 0 mm 2 mps 721 mmHg 61%
    12:00 +16°C° 0 mm 2 mps 721 mmHg 60%
    13:00 +17°C° 0 mm 2 mps 721 mmHg 59%
    14:00 +16°C° 0 mm 2 mps 721 mmHg 65%
    15:00 +15°C° 0 mm 1 mps 721 mmHg 70%
    16:00 +15°C° 0 mm 1 mps 721 mmHg 75%
    17:00 +14°C° 0 mm 1 mps 721 mmHg 78%
    18:00 +13°C° 0 mm 1 mps 721 mmHg 81%
    19:00 +12°C° 0 mm 1 mps 721 mmHg 85%
    20:00 +11°C° 0 mm 1 mps 721 mmHg 86%
    21:00 +11°C° 0 mm 1 mps 721 mmHg 87%
    22:00 +10°C° 0 mm 1 mps 721 mmHg 89%
    23:00 +10°C° 0 mm 1 mps 721 mmHg 89%

    18 October, Friday

    Time Temperature Precipitation Wind Pressure Humidity
    00:00 +10°C° 0 mm 1 mps 721 mmHg 89%
    01:00 +10°C° 0 mm 1 mps 721 mmHg 89%
    02:00 +10°C° 0 mm 1 mps 721 mmHg 88%
    03:00 +10°C° 0 mm 1 mps 721 mmHg 86%
    04:00 +10°C° 0 mm 1 mps 721 mmHg 85%
    05:00 +10°C° 0 mm 1 mps 721 mmHg 84%
    06:00 +9°C° 0 mm 0 mps 721 mmHg 82%
    07:00 +10°C° 0 mm 0 mps 721 mmHg 80%
    08:00 +12°C° 0 mm 1 mps 721 mmHg 76%
    09:00 +14°C° 0 mm 1 mps 721 mmHg 71%
    10:00 +15°C° 0 mm 1 mps 722 mmHg 66%
    11:00 +16°C° 0 mm 1 mps 721 mmHg 64%
    12:00 +16°C° 0 mm 1 mps 721 mmHg 63%
    13:00 +18°C° 0 mm 1 mps 721 mmHg 61%
    14:00 +18°C° 0 mm 1 mps 721 mmHg 66%
    15:00 +16°C° 0 mm 1 mps 721 mmHg 70%
    16:00 +15°C° 0 mm 1 mps 721 mmHg 75%
    17:00 +14°C° 0 mm 1 mps 720 mmHg 79%
    18:00 +13°C° 0 mm 1 mps 720 mmHg 83%
    19:00 +12°C° 0 mm 1 mps 720 mmHg 87%
    20:00 +12°C° 0 mm 1 mps 720 mmHg 87%
    21:00 +12°C° 0 mm 1 mps 720 mmHg 88%
    22:00 +12°C° 0 mm 1 mps 720 mmHg 88%
    23:00 +12°C° 0 mm 1 mps 720 mmHg 88%

    19 October, Saturday

    Time Temperature Precipitation Wind Pressure Humidity
    00:00 +11°C° 0 mm 1 mps 720 mmHg 89%
    01:00 +11°C° 0 mm 1 mps 719 mmHg 90%
    02:00 +11°C° 0 mm 1 mps 719 mmHg 90%
    03:00 +11°C° 0 mm 1 mps 719 mmHg 89%
    04:00 +11°C° 0 mm 1 mps 719 mmHg 89%
    05:00 +11°C° 0 mm 1 mps 719 mmHg 89%
    06:00 +11°C° 0 mm 1 mps 719 mmHg 89%
    07:00 +11°C° 0 mm 1 mps 718 mmHg 88%
    08:00 +12°C° 0 mm 1 mps 718 mmHg 85%
    09:00 +13°C° 0 mm 2 mps 718 mmHg 82%
    10:00 +14°C° 0 mm 2 mps 718 mmHg 79%
    11:00 +15°C° 0 mm 2 mps 718 mmHg 77%
    12:00 +15°C° 0 mm 2 mps 718 mmHg 76%
    13:00 +16°C° 0 mm 2 mps 718 mmHg 74%
    14:00 +15°C° 0 mm 2 mps 718 mmHg 76%
    15:00 +15°C° 0 mm 2 mps 717 mmHg 78%
    16:00 +15°C° 0 mm 2 mps 717 mmHg 80%
    17:00 +14°C° 0 mm 2 mps 717 mmHg 84%
    18:00 +12°C° 0 mm 2 mps 717 mmHg 88%
    19:00 +10°C° 0 mm 2 mps 717 mmHg 93%
    20:00 +10°C° 0 mm 2 mps 716 mmHg 92%
    21:00 +10°C° 0 mm 2 mps 716 mmHg 92%
    22:00 +11°C° 0 mm 1 mps 716 mmHg 92%
    23:00 +10°C° 0 mm 2 mps 715 mmHg 92%

    20 October, Sunday

    Time Temperature Precipitation Wind Pressure Humidity
    00:00 +10°C° 0 mm 2 mps 715 mmHg 92%
    01:00 +10°C° 0 mm 2 mps 715 mmHg 92%
    02:00 +10°C° 0 mm 2 mps 715 mmHg 91%
    03:00 +10°C° 0 mm 2 mps 715 mmHg 90%
    04:00 +10°C° 0 mm 2 mps 715 mmHg 89%
    05:00 +10°C° 0 mm 2 mps 715 mmHg 91%
    06:00 +10°C° 0 mm 2 mps 716 mmHg 92%
    07:00 +9°C° 0 mm 2 mps 716 mmHg 94%
    08:00 +10°C° 0 mm 2 mps 717 mmHg 90%
    09:00 +12°C° 0 mm 2 mps 717 mmHg 86%
    10:00 +13°C° 0 mm 2 mps 718 mmHg 83%
    11:00 +13°C° 0 mm 2 mps 718 mmHg 81%
    12:00 +13°C° 0 mm 2 mps 719 mmHg 80%
    13:00 +14°C° 0 mm 2 mps 719 mmHg 79%
    14:00 +14°C° 0 mm 2 mps 719 mmHg 79%
    15:00 +13°C° 0 mm 2 mps 719 mmHg 79%
    16:00 +13°C° 0 mm 1 mps 719 mmHg 79%
    17:00 +13°C° 0 mm 1 mps 719 mmHg 83%
    18:00 +12°C° 0 mm 1 mps 720 mmHg 86%
    19:00 +11°C° 0 mm 1 mps 720 mmHg 89%
    20:00 +11°C° 0 mm 1 mps 720 mmHg 88%
    21:00 +11°C° 0 mm 1 mps 720 mmHg 88%
    22:00 +11°C° 0 mm 1 mps 720 mmHg 87%
    23:00 +11°C° 0.2 mm 1 mps 720 mmHg 86%
    Show more